Location: Colonia Mina de C?rbuni
(46.1667°N, 22.7167°E)
Time: 16:20:07
(UTC+00:00)

Vanguard 1 Rocket - Pass Details

Date: 18 April 2024
Orbit: 650 x 4220 km, 34.3° (Epoch: 22 May)

Event Time Altitude Azimuth Distance (km) Brightness Sun altitude
Exits shadow 01:19:49 11° 191° (S) 6,800 11.3 -21.2°
Drops below altitude 10° 01:20:41 10° 189° (S) 6,916 11.4 -21.1°
Sets 01:31:00 0° 171° (S) 8,366 12.0 -19.8°
